Regional Weather Roundup
Issued by NWS

Home | Current Version | Previous Version | Text Only | Print | Product List | Glossary Off
Versions: 1 2 3 4 5 6 7 8 9 10 11 12 13 14 15 16 17 18 19 20 21 22 23 24 25 26 27 28 29 30 31 32 33 34 35 36 37 38 39 40 41 42 43 44 45 46 47 48 49 50

000
ASUS43 KDTX 031610
RWRMI
MICHIGAN HOURLY REGIONAL WEATHER ROUNDUP
NATIONAL WEATHER SERVICE DETROIT/PONTIAC MI
1100 AM EST TUE MAR 03 2015

NOTE: "FAIR" INDICATES FEW OR NO CLOUDS BELOW 12,000 FEET WITH NO
SIGNIFICANT WEATHER AND/OR OBSTRUCTION TO VISIBILITY.

MIZ047>049-052>055-059>063-066>070-074>076-081>083-031700-
SOUTHEAST LOWER MICHIGAN

CITY           SKY/WX    TMP DP  RH WIND       PRES   REMARKS
ADRIAN         FRZ RAIN  26  21  81 S16       29.93F
ALMA           SNOW      22  21  95 SE14      29.86F VSB 1/4
ANN ARBOR      FRZ RAIN  25  21  85 S13       29.94F FOG
BAD AXE        SNOW      21  19  91 S9        29.95F VSB 1/2
DETROIT CITY   FRZ RAIN  26  21  81 SE13      29.96F
DETROIT        FRZ RAIN  25  22  88 SE10      29.97F FOG
FLINT          HVY SNOW  24  19  81 SE12      29.93F VSB 1/4
GROSSE ILE     MIX PCPN  25  21  86 SE13      29.95F
HILLSDALE      MIX PCPN  25  22  87 SE14G22   29.85F
HOWELL         LGT SNOW  22  20  91 SE13      29.89F

CITY           SKY/WX    TMP DP  RH WIND       PRES   REMARKS
JACKSON        CLOUDY    24  21  88 S16       29.86F FOG
LAMBERTVILLE   MIX PCPN  28  23  80 SE6       29.95F
LANSING        MIX PCPN  23  19  85 SE12      29.87F FOG
LAPEER         NOT AVBL
MASON          LGT SNOW  24  20  87 SE13      29.88F
MONROE         MIX PCPN  27  21  80 SE10G16   29.94F
MT. CLEMENS    LGT SNOW  23  19  86 SE15      29.93F
PONTIAC        FRZ RAIN  22  19  89 SE10      29.91F FOG
PORT HOPE        N/A     22  17  81 S15G23    29.94F
PORT HURON     SNOW      21  19  93 SE13      29.99F VSB 1/2
TRI CITIES     SNOW      24  20  84 SE14      29.88F VSB 1/4
YPSILANTI      FRZ RAIN  27  21  78 SE13      29.96F
$$
MIZ043>046-050>051-056>058-064>065-071>073-077>080-031700-
SOUTHWEST LOWER MICHIGAN

CITY           SKY/WX    TMP DP  RH WIND       PRES   REMARKS
BATTLE CREEK   FRZ RAIN  27  22  81 SE15G22   29.81F
BENTON HARBOR  FRZ RAIN  28  25  88 SE14G26   29.74F FOG
BIG RAPIDS     SNOW      23  22  94 SE13G18   29.80F VSB 1/2
COLDWATER      MIX PCPN  26  22  85 SE12G17   29.85F
HOLLAND        MIX PCPN  27  23  85 SE15      29.76F FOG
GRAND RAPIDS   LGTSLEET  23  19  85 SE13      29.80F FOG
KALAMAZOO      FRZ RAIN  26  22  84 SE10G21   29.81F
MARSHALL       MIX PCPN  25  21  85 SE12      29.86F
MUSKEGON       SNOW      25  21  85 SE16      29.78F VSB 1/2
$$
MIZ016>042-031700-
NORTHERN LOWER MICHIGAN

CITY           SKY/WX    TMP DP  RH WIND       PRES   REMARKS
ALPENA         SNOW      23  19  85 S14       29.88F VSB 1/2
BEAVER ISLAND  LGT SNOW  23  19  84 S13       29.78F VSB 1
BELLAIRE       LGT SNOW  24  20  85 S10       29.82F
CADILLAC       LGT SNOW  21  18  87 SE10      29.75F
CHARLEVOIX     LGT SNOW  23  20  87 S14G21    29.83F VSB 3/4
FRANKFORT      LGT SNOW  24  21  90 S12       29.78F VSB 1
GAYLORD        SNOW      20  18  92 S9        29.78F VSB 1/2
GRAYLING       SNOW      21  18  90 SE10      29.81F VSB 1/2
HARBOR SPRINGS LGT SNOW  24  19  83 S7        29.80F VSB 1
HOUGHTON LAKE  LGT SNOW  21  17  84 SE12G18   29.80F FOG
MANISTEE       CLOUDY    25  18  74 SE7       29.79F VSB 3/4
OSCODA         LGT SNOW  24  21  91 S13G18    29.91F VSB 3/4
PELLSTON       CLOUDY    23  16  74 SE13      29.80F
TRAVERSE CITY  LGT SNOW  24  19  81 S8        29.79F VSB 1
$$
MIZ007>008-015-031700-
EASTERN UPPER MICHIGAN

CITY           SKY/WX    TMP DP  RH WIND       PRES   REMARKS
KINROSS        CLOUDY    19  18  93 SE10      29.80F VSB 1
MACKINAC ISLAN CLOUDY    22  17  81 SE14G21   29.79F
NEWBERRY       CLOUDY    20  18  90 S13G18    29.74F
S. S. MARIE    LGT SNOW  16  12  84 E7        29.81F VSB 3/4
$$
MIZ004>006-011>014-085-031700-
CENTRAL UPPER MICHIGAN

CITY           SKY/WX    TMP DP  RH WIND       PRES   REMARKS
MANISTIQUE     CLOUDY    24  21  90 SE12G18   29.75F
ESCANABA       CLOUDY    27  25  93 S13G20    29.73F VSB 1/2
MENOMINEE      CLOUDY    27  25  93 S9G17     29.70F
SAWYER-GWINN   CLOUDY    23  18  80 S10       29.68F
$$
MIZ001>003-009>011-084-031700-
WESTERN UPPER MICHIGAN

CITY           SKY/WX    TMP DP  RH WIND       PRES   REMARKS
IRON MOUNTAIN  SNOW      21  18  88 S3        29.67F VSB 1/2
HOUGHTON       LGT SNOW  21  17  84 SW10      29.63F VSB 1
COPPER HARBOR    N/A     23  18  81 SW8       29.65F
IRONWOOD       CLOUDY    19  16  86 S9        29.61F VSB 1/2
$$

ABBREVIATIONS USED IN REMARKS
   TC - TEMPERATURE IN CELSIUS
  WCI - WIND CHILL INDEX
   HX - HEAT INDEX
  VSB - VISIBILITY




USA.gov is the U.S. government's official web portal to all federal, state and local government web resources and services.